When you browse on this site, cookies collect data to enhance your experience and personalize the content and advertising you see.
Visit our Privacy Policy to learn more. By continuing to use the site, you agree to this use of cookies and data.
  • în România
  • Lista ţărilor
  • Pe 7 zile
  • Temperatura apei
  • Meteo pe hartă
  • Widget-uri
  • user-avatar
    Intrare

    Meteo pe oră la Dalat

    Astăzi, 26 Ianuarie, Duminică

    Timp Temperatura Precipitaţii Vânt Presiune Umiditate
    00:00 +15°C° 0 mm 0 m/s 652 mmHg 95%
    01:00 +16°C° 0 mm 0 m/s 652 mmHg 94%
    02:00 +15°C° 0 mm 0 m/s 652 mmHg 94%
    03:00 +15°C° 0 mm 0 m/s 652 mmHg 94%
    04:00 +15°C° 0 mm 0 m/s 652 mmHg 93%
    05:00 +16°C° 0 mm 0 m/s 652 mmHg 93%
    06:00 +16°C° 0 mm 0 m/s 652 mmHg 92%
    07:00 +16°C° 0 mm 0 m/s 653 mmHg 88%
    08:00 +19°C° 0 mm 0 m/s 654 mmHg 76%
    09:00 +22°C° 0 mm 0 m/s 655 mmHg 65%
    10:00 +27°C° 0 mm 1 m/s 656 mmHg 53%
    11:00 +28°C° 0 mm 1 m/s 656 mmHg 49%
    12:00 +28°C° 0 mm 1 m/s 655 mmHg 45%
    13:00 +29°C° 0 mm 2 m/s 655 mmHg 41%
    14:00 +28°C° 0.1 mm 2 m/s 654 mmHg 45%
    15:00 +27°C° 0.1 mm 1 m/s 653 mmHg 49%
    16:00 +26°C° 0.1 mm 1 m/s 652 mmHg 53%
    17:00 +24°C° 0.1 mm 1 m/s 652 mmHg 66%
    18:00 +21°C° 0.1 mm 1 m/s 652 mmHg 80%
    19:00 +17°C° 0 mm 0 m/s 651 mmHg 94%
    20:00 +16°C° 0.1 mm 0 m/s 652 mmHg 95%
    21:00 +16°C° 0.1 mm 0 m/s 652 mmHg 95%
    22:00 +16°C° 0.1 mm 0 m/s 652 mmHg 96%
    23:00 +16°C° 0.1 mm 0 m/s 652 mmHg 97%

    Mâine, 27 Ianuarie, Luni

    Timp Temperatura Precipitaţii Vânt Presiune Umiditate
    00:00 +16°C° 0.1 mm 0 m/s 652 mmHg 97%
    01:00 +16°C° 0.1 mm 0 m/s 652 mmHg 98%
    02:00 +16°C° 0.1 mm 0 m/s 652 mmHg 98%
    03:00 +15°C° 0.1 mm 0 m/s 651 mmHg 98%
    04:00 +15°C° 0.1 mm 0 m/s 651 mmHg 98%
    05:00 +15°C° 0 mm 0 m/s 651 mmHg 97%
    06:00 +16°C° 0 mm 0 m/s 652 mmHg 96%
    07:00 +18°C° 0 mm 1 m/s 652 mmHg 95%
    08:00 +21°C° 0 mm 1 m/s 653 mmHg 78%
    09:00 +24°C° 0 mm 1 m/s 654 mmHg 62%
    10:00 +27°C° 0 mm 1 m/s 655 mmHg 46%
    11:00 +28°C° 0 mm 1 m/s 655 mmHg 42%
    12:00 +29°C° 0 mm 1 m/s 655 mmHg 37%
    13:00 +30°C° 0 mm 2 m/s 655 mmHg 33%
    14:00 +28°C° 0.1 mm 2 m/s 654 mmHg 38%
    15:00 +27°C° 0.1 mm 2 m/s 653 mmHg 44%
    16:00 +26°C° 0.1 mm 2 m/s 652 mmHg 49%
    17:00 +24°C° 0.1 mm 2 m/s 652 mmHg 64%
    18:00 +21°C° 0.1 mm 1 m/s 651 mmHg 79%
    19:00 +18°C° 0.1 mm 1 m/s 651 mmHg 94%
    20:00 +18°C° 0 mm 1 m/s 651 mmHg 95%
    21:00 +18°C° 0 mm 1 m/s 652 mmHg 96%
    22:00 +15°C° 0 mm 0 m/s 652 mmHg 97%
    23:00 +15°C° 0 mm 0 m/s 652 mmHg 97%

    Poimâine, 28 Ianuarie, Marţi

    Timp Temperatura Precipitaţii Vânt Presiune Umiditate
    00:00 +15°C° 0 mm 0 m/s 652 mmHg 96%
    01:00 +14°C° 0 mm 0 m/s 651 mmHg 96%
    02:00 +14°C° 0 mm 0 m/s 651 mmHg 95%
    03:00 +14°C° 0 mm 0 m/s 651 mmHg 95%
    04:00 +14°C° 0 mm 0 m/s 650 mmHg 94%
    05:00 +14°C° 0 mm 0 m/s 651 mmHg 92%
    06:00 +15°C° 0 mm 0 m/s 652 mmHg 90%
    07:00 +15°C° 0 mm 0 m/s 652 mmHg 87%
    08:00 +21°C° 0 mm 1 m/s 654 mmHg 72%
    09:00 +24°C° 0 mm 1 m/s 655 mmHg 57%
    10:00 +27°C° 0 mm 1 m/s 656 mmHg 42%
    11:00 +28°C° 0 mm 1 m/s 656 mmHg 39%
    12:00 +29°C° 0 mm 1 m/s 655 mmHg 37%
    13:00 +29°C° 0 mm 2 m/s 655 mmHg 34%
    14:00 +28°C° 0.1 mm 2 m/s 654 mmHg 41%
    15:00 +27°C° 0.1 mm 2 m/s 653 mmHg 48%
    16:00 +26°C° 0.1 mm 2 m/s 652 mmHg 55%
    17:00 +23°C° 0.2 mm 2 m/s 652 mmHg 68%
    18:00 +21°C° 0.2 mm 1 m/s 652 mmHg 81%
    19:00 +19°C° 0.2 mm 1 m/s 652 mmHg 94%
    20:00 +19°C° 0.1 mm 1 m/s 652 mmHg 95%
    21:00 +16°C° 0.1 mm 0 m/s 653 mmHg 96%
    22:00 +16°C° 0.1 mm 0 m/s 653 mmHg 97%
    23:00 +16°C° 0.1 mm 0 m/s 653 mmHg 97%

    29 Ianuarie, Miercuri

    Timp Temperatura Precipitaţii Vânt Presiune Umiditate
    00:00 +16°C° 0.1 mm 0 m/s 653 mmHg 97%
    01:00 +16°C° 0.1 mm 0 m/s 653 mmHg 96%
    02:00 +15°C° 0.1 mm 0 m/s 652 mmHg 96%
    03:00 +15°C° 0.1 mm 0 m/s 652 mmHg 96%
    04:00 +15°C° 0.1 mm 0 m/s 652 mmHg 96%
    05:00 +15°C° 0 mm 0 m/s 652 mmHg 95%
    06:00 +15°C° 0 mm 0 m/s 653 mmHg 93%
    07:00 +16°C° 0 mm 0 m/s 653 mmHg 92%
    08:00 +21°C° 0 mm 1 m/s 654 mmHg 77%
    09:00 +24°C° 0 mm 1 m/s 655 mmHg 63%
    10:00 +27°C° 0 mm 1 m/s 657 mmHg 48%
    11:00 +27°C° 0 mm 1 m/s 656 mmHg 44%
    12:00 +28°C° 0 mm 1 m/s 656 mmHg 40%
    13:00 +29°C° 0 mm 2 m/s 655 mmHg 37%
    14:00 +28°C° 0.2 mm 2 m/s 654 mmHg 43%
    15:00 +26°C° 0.2 mm 2 m/s 654 mmHg 49%
    16:00 +25°C° 0.2 mm 2 m/s 653 mmHg 56%
    17:00 +23°C° 0.3 mm 1 m/s 652 mmHg 68%
    18:00 +21°C° 0.3 mm 1 m/s 652 mmHg 80%
    19:00 +19°C° 0.3 mm 1 m/s 652 mmHg 92%
    20:00 +18°C° 0.2 mm 1 m/s 652 mmHg 94%
    21:00 +18°C° 0.2 mm 1 m/s 653 mmHg 95%
    22:00 +18°C° 0.2 mm 1 m/s 653 mmHg 96%
    23:00 +16°C° 0.1 mm 1 m/s 653 mmHg 96%

    30 Ianuarie, Joi

    Timp Temperatura Precipitaţii Vânt Presiune Umiditate
    00:00 +16°C° 0.1 mm 1 m/s 652 mmHg 96%
    01:00 +16°C° 0.1 mm 1 m/s 652 mmHg 96%
    02:00 +15°C° 0 mm 1 m/s 652 mmHg 96%
    03:00 +15°C° 0 mm 1 m/s 652 mmHg 95%
    04:00 +15°C° 0 mm 1 m/s 651 mmHg 95%
    05:00 +15°C° 0 mm 1 m/s 652 mmHg 94%
    06:00 +15°C° 0 mm 1 m/s 652 mmHg 93%
    07:00 +15°C° 0 mm 1 m/s 653 mmHg 92%
    08:00 +19°C° 0 mm 1 m/s 654 mmHg 80%
    09:00 +21°C° 0 mm 2 m/s 655 mmHg 68%
    10:00 +24°C° 0 mm 2 m/s 656 mmHg 56%
    11:00 +25°C° 0.1 mm 2 m/s 655 mmHg 56%
    12:00 +25°C° 0.1 mm 2 m/s 655 mmHg 56%
    13:00 +25°C° 0.1 mm 2 m/s 654 mmHg 56%
    14:00 +24°C° 0.4 mm 2 m/s 653 mmHg 65%
    15:00 +21°C° 0.4 mm 2 m/s 653 mmHg 73%
    16:00 +20°C° 0.4 mm 2 m/s 652 mmHg 81%
    17:00 +19°C° 0.2 mm 2 m/s 652 mmHg 86%
    18:00 +17°C° 0.2 mm 2 m/s 652 mmHg 91%
    19:00 +16°C° 0.2 mm 2 m/s 652 mmHg 95%
    20:00 +16°C° 0 mm 2 m/s 653 mmHg 95%
    21:00 +16°C° 0 mm 1 m/s 653 mmHg 95%
    22:00 +15°C° 0 mm 1 m/s 653 mmHg 94%
    23:00 +15°C° 0 mm 1 m/s 653 mmHg 94%

    31 Ianuarie, Vineri

    Timp Temperatura Precipitaţii Vânt Presiune Umiditate
    00:00 +15°C° 0 mm 1 m/s 653 mmHg 94%
    01:00 +15°C° 0 mm 1 m/s 653 mmHg 94%
    02:00 +15°C° 0 mm 2 m/s 652 mmHg 95%
    03:00 +15°C° 0 mm 2 m/s 652 mmHg 95%
    04:00 +15°C° 0 mm 2 m/s 652 mmHg 95%
    05:00 +15°C° 0 mm 2 m/s 652 mmHg 94%
    06:00 +15°C° 0 mm 2 m/s 653 mmHg 93%
    07:00 +15°C° 0 mm 2 m/s 653 mmHg 92%
    08:00 +17°C° 0 mm 2 m/s 654 mmHg 82%
    09:00 +19°C° 0 mm 2 m/s 655 mmHg 71%
    10:00 +21°C° 0 mm 2 m/s 656 mmHg 61%
    11:00 +23°C° 0 mm 2 m/s 655 mmHg 59%
    12:00 +24°C° 0 mm 2 m/s 655 mmHg 56%
    13:00 +24°C° 0 mm 2 m/s 655 mmHg 54%
    14:00 +23°C° 0 mm 2 m/s 654 mmHg 59%
    15:00 +21°C° 0 mm 2 m/s 653 mmHg 64%
    16:00 +20°C° 0 mm 2 m/s 653 mmHg 69%
    17:00 +18°C° 0 mm 2 m/s 652 mmHg 77%
    18:00 +17°C° 0 mm 2 m/s 652 mmHg 85%
    19:00 +15°C° 0 mm 2 m/s 652 mmHg 93%
    20:00 +14°C° 0 mm 2 m/s 652 mmHg 93%
    21:00 +14°C° 0 mm 1 m/s 652 mmHg 94%
    22:00 +13°C° 0 mm 1 m/s 653 mmHg 94%
    23:00 +13°C° 0 mm 1 m/s 653 mmHg 94%
    Arată mai mult